Fitchburg, MA

6:50 AM EST on November 25, 2017 (GMT -0500)
Fitchburg Municipal

Weather History for KFIT - August, 2012

Change the Weather History Date:

Sunday, August 26, 2012

  Actual Average (KORH) Record (KORH)
Temperature  
Mean Temperature 70 °F -  
Max Temperature 82 °F 77 °F 98 °F (1948)
Min Temperature 57 °F 57 °F 40 °F (1942)
Cooling Degree Days 4    
Growing Degree Days 20 (Base 50)    
Moisture  
Dew Point 58 °F    
Average Humidity 67    
Maximum Humidity 96    
Minimum Humidity 42    
Precipitation  
Precipitation 0.00 in - - ()
Sea Level Pressure  
Sea Level Pressure 30.30 in    
Wind  
Wind Speed 2 mph (SSE)    
Max Wind Speed 8 mph    
Max Gust Speed -    
Visibility 10 miles    
Events      
Averages and records for this station are not official NWS values.
T = Trace of Precipitation, MM = Missing Value Source: NWS Daily Summary

Daily Weather History Graph

Daily Weather History Graph

Search for Another Location

Airport or City:

Trip Planner

Search our weather history database for the weather conditions in past years. The results will help you decide how hot, cold, wet, or windy it might be!

Date:

Astronomy

Aug. 26, 2012 Rise Set
Actual Time 6:06 AM EDT 7:30 PM EDT
Civil Twilight 5:36 AM EDT 7:59 PM EDT
Nautical Twilight 5:01 AM EDT 8:35 PM EDT
Astronomical Twilight 4:23 AM EDT 9:12 PM EDT
Moon 4:01 PM EDT (8/26) 12:39 AM EDT (8/26)
Length of Visible Light 14h 23m
Length of Day
13h 24m
Waxing Gibbous, 73% of the Moon is Illuminated
Aug 26
Waxing Gibbous
Aug 31
Full
Sep 8
Last Quarter
Sep 15
New
Sep 22
First Quarter

Hourly Weather History & Observations

Time (EDT) Temp. Heat Index Dew Point Humidity Pressure Visibility Wind Dir Wind Speed Gust Speed Precip Events Conditions
12:52 AM 61.0 °F - 57.9 °F 90% 30.34 in 10.0 mi Calm Calm - N/A   Clear
1:52 AM 61.0 °F - 57.9 °F 90% 30.35 in 10.0 mi Calm Calm - N/A   Mostly Cloudy
3:52 AM 60.1 °F - 57.0 °F 90% 30.35 in 10.0 mi North 3.5 mph - N/A   Clear
4:52 AM 59.0 °F - 57.0 °F 93% 30.35 in 10.0 mi Calm Calm - N/A   Clear
5:52 AM 57.0 °F - 55.9 °F 96% 30.36 in 10.0 mi Calm Calm - N/A   Clear
7:52 AM 64.0 °F - 59.0 °F 84% 30.36 in 10.0 mi Calm Calm - N/A   Clear
8:52 AM 69.1 °F - 60.1 °F 73% 30.35 in 10.0 mi Calm Calm - N/A   Clear
9:52 AM 73.0 °F - 57.0 °F 57% 30.35 in 10.0 mi SE 3.5 mph - N/A   Clear
10:52 AM 75.9 °F - 57.0 °F 52% 30.34 in 10.0 mi Variable 3.5 mph - N/A   Clear
11:52 AM 78.1 °F - 57.0 °F 48% 30.34 in 10.0 mi SSE 5.8 mph - N/A   Clear
12:52 PM 80.1 °F 80.2 °F 55.9 °F 43% 30.33 in 10.0 mi Calm Calm - N/A   Clear
1:52 PM 81.0 °F 80.8 °F 55.9 °F 42% 30.31 in 10.0 mi Variable 4.6 mph - N/A   Clear
2:52 PM 82.0 °F 81.7 °F 57.0 °F 42% 30.29 in 10.0 mi SE 4.6 mph - N/A   Clear
3:52 PM 82.9 °F 82.8 °F 59.0 °F 44% 30.27 in 10.0 mi South 6.9 mph - N/A   Clear
4:52 PM 82.0 °F 82.0 °F 57.9 °F 44% 30.25 in 10.0 mi SSE 4.6 mph - N/A   Clear
5:52 PM 81.0 °F 81.1 °F 57.9 °F 45% 30.25 in 10.0 mi South 8.1 mph - N/A   Clear
6:52 PM 80.1 °F 80.6 °F 57.9 °F 47% 30.24 in 10.0 mi South 6.9 mph - N/A   Clear
7:52 PM 75.0 °F - 60.1 °F 60% 30.24 in 10.0 mi South 3.5 mph - N/A   Clear
8:52 PM 69.1 °F - 61.0 °F 75% 30.25 in 10.0 mi Calm Calm - N/A   Clear
9:52 PM 68.0 °F - 62.1 °F 81% 30.25 in 10.0 mi Calm Calm - N/A   Clear
10:52 PM 66.0 °F - 61.0 °F 84% 30.25 in 10.0 mi Calm Calm - N/A   Clear
11:52 PM 64.9 °F - 61.0 °F 87% 30.25 in 10.0 mi Calm Calm - N/A   Clear